Sitka, AK

10:15 AM AKDT on July 26, 2017 (GMT -0800)
Sitka Rocky Gutierrez

Weather History for PASI - February, 2014

Change the Weather History Date:

Tuesday, February 4, 2014

  Actual Average Record
Temperature  
Mean Temperature 30 °F -  
Max Temperature 34 °F 41 °F 53 °F (1954)
Min Temperature 25 °F 31 °F 18 °F (1968)
Degree Days  
Heating Degree Days 36    
Moisture  
Dew Point 6 °F    
Average Humidity 37    
Maximum Humidity 53    
Minimum Humidity 26    
Precipitation  
Precipitation 0.00 in - - ()
Sea Level Pressure  
Sea Level Pressure 30.59 in    
Wind  
Wind Speed 7 mph (East)    
Max Wind Speed 10 mph    
Max Gust Speed -    
Visibility 10 miles    
Events      
Averages and records for this station are not official NWS values.
T = Trace of Precipitation, MM = Missing Value Source: NWS Daily Summary

Daily Weather History Graph

Daily Weather History Graph

Search for Another Location

Airport or City:

Trip Planner

Search our weather history database for the weather conditions in past years. The results will help you decide how hot, cold, wet, or windy it might be!

Date:

Astronomy

Feb. 04, 2014 Rise Set
Actual Time 7:54 AM AKST 4:37 PM AKST
Civil Twilight 7:12 AM AKST 5:19 PM AKST
Nautical Twilight 6:26 AM AKST 6:05 PM AKST
Astronomical Twilight 5:41 AM AKST 6:49 PM AKST
Moon 9:22 AM AKST (2/4) No Moon Set
Length of Visible Light 10h 07m
Length of Day
8h 43m
Waxing Crescent, 30% of the Moon is Illuminated
Feb 4
Waxing Crescent
Feb 6
First Quarter
Feb 14
Full
Feb 22
Last Quarter
Feb 28
New

Hourly Weather History & Observations

Time (AKST) Temp. Windchill Dew Point Humidity Pressure Visibility Wind Dir Wind Speed Gust Speed Precip Events Conditions
12:53 AM 30.9 °F 23.5 °F 6.1 °F 35% 30.56 in 10.0 mi NE 8.1 mph - N/A   Clear
1:53 AM 30.0 °F 23.2 °F 9.0 °F 41% 30.57 in 10.0 mi East 6.9 mph - N/A   Clear
2:53 AM 28.9 °F 21.9 °F 7.0 °F 40% 30.58 in 10.0 mi ENE 6.9 mph - N/A   Clear
3:53 AM 30.0 °F 22.4 °F 6.1 °F 36% 30.58 in 10.0 mi East 8.1 mph - N/A   Clear
4:53 AM 30.0 °F 21.7 °F 7.0 °F 38% 30.58 in 10.0 mi East 9.2 mph - N/A   Clear
5:53 AM 30.0 °F 21.7 °F 3.0 °F 32% 30.58 in 10.0 mi East 9.2 mph - N/A   Clear
6:53 AM 28.9 °F 21.9 °F 5.0 °F 36% 30.58 in 10.0 mi East 6.9 mph - N/A   Clear
7:53 AM 28.9 °F 21.1 °F 6.1 °F 38% 30.60 in 10.0 mi East 8.1 mph - N/A   Clear
8:53 AM 30.0 °F 23.2 °F 3.9 °F 33% 30.61 in 10.0 mi East 6.9 mph - N/A   Clear
9:53 AM 30.9 °F 23.5 °F 3.9 °F 32% 30.61 in 10.0 mi East 8.1 mph - N/A   Clear
10:53 AM 33.1 °F 26.1 °F 3.9 °F 29% 30.62 in 10.0 mi East 8.1 mph - N/A   Clear
11:53 AM 34.0 °F 29.8 °F 1.9 °F 26% 30.61 in 10.0 mi SE 4.6 mph - N/A   Clear
12:53 PM 34.0 °F 28.0 °F 3.9 °F 28% 30.61 in 10.0 mi ESE 6.9 mph - N/A   Clear
1:53 PM 34.0 °F 27.2 °F 3.9 °F 28% 30.60 in 10.0 mi ESE 8.1 mph - N/A   Clear
2:53 PM 34.0 °F 26.0 °F 5.0 °F 30% 30.59 in 10.0 mi SE 10.4 mph - N/A   Clear
3:53 PM 33.1 °F 26.9 °F 1.0 °F 26% 30.59 in 10.0 mi SE 6.9 mph - N/A   Clear
4:53 PM 30.9 °F 27.5 °F 5.0 °F 33% 30.58 in 10.0 mi East 3.5 mph - N/A   Clear
5:53 PM 28.0 °F 21.7 °F 10.0 °F 47% 30.58 in 10.0 mi East 5.8 mph - N/A   Clear
6:53 PM 27.0 °F 23.0 °F 10.0 °F 49% 30.58 in 10.0 mi NNE 3.5 mph - N/A   Clear
7:53 PM 28.9 °F 23.9 °F 10.0 °F 45% 30.58 in 10.0 mi ESE 4.6 mph - N/A   Clear
8:53 PM 28.0 °F - 6.1 °F 39% 30.57 in 10.0 mi Calm Calm - N/A   Clear
9:53 PM 26.1 °F 21.9 °F 10.9 °F 53% 30.58 in 10.0 mi ENE 3.5 mph - N/A   Clear
10:53 PM 25.0 °F 19.3 °F 10.0 °F 53% 30.58 in 10.0 mi East 4.6 mph - N/A   Clear
11:53 PM 27.0 °F 19.5 °F 6.1 °F 41% 30.58 in 10.0 mi East 6.9 mph - N/A   Clear